HS0TK-1 Weather Reports


time (UTC)temp
F
wind
direction
speed
knots
gust
knots
rain 1hr
in
rain 24hr
in
rain mn
in
humidity
%
barometer
mb
20260505032430 91 0 0.0 0.0 0.00 0.00 0.00 53 1012.0
20260505032328 91 0 0.0 0.0 0.00 0.00 0.00 53 1012.0
20260505030759 91 0 0.0 0.0 0.00 0.00 0.00 54 1012.0
20260505025233 90 0 0.0 0.0 0.00 0.00 0.00 55 1012.0
20260505023701 89 0 0.0 0.0 0.00 0.00 0.00 57 1012.0
20260505022134 89 0 0.0 0.0 0.00 0.00 0.00 57 1012.0
20260505020604 89 0 0.0 0.0 0.00 0.00 0.00 58 1012.0
20260505015034 89 0 0.0 0.0 0.00 0.00 0.00 59 1012.0
20260505013501 88 0 0.0 0.0 0.00 0.00 0.00 59 1012.0
20260505011932 88 0 0.0 0.0 0.00 0.00 0.00 59 1012.0
20260505010401 88 0 0.0 0.0 0.00 0.00 0.00 60 1012.0
20260505004827 88 0 0.0 0.0 0.00 0.00 0.00 61 1012.0
20260505003253 87 0 0.0 0.0 0.00 0.00 0.00 61 1011.0
20260505001721 87 0 0.0 0.0 0.00 0.00 0.00 61 1011.0
20260505000154 88 0 0.0 0.0 0.00 0.00 0.00 60 1011.0
20260504234622 88 0 0.0 0.0 0.00 0.00 0.00 56 1011.0
20260504233051 88 0 0.0 0.0 0.00 0.00 0.00 56 1011.0
20260504231507 88 0 0.0 0.0 0.00 0.00 0.00 57 1010.0
20260504110533 95 0 0.0 0.0 0.00 0.00 0.00 47 1008.0
20260504100336 91 0 0.0 0.0 0.00 0.00 0.00 39 1006.0
20260504090121 90 0 0.0 0.0 0.00 0.00 0.00 41 1006.0
20260504081352 89 0 0.0 0.0 0.00 0.00 0.00 38 1006.0
20260504050729 96 0 0.0 0.0 0.00 0.00 0.00 45 1010.0
20260504045200 98 0 0.0 0.0 0.00 0.00 0.00 47 1010.0
20260504043633 97 0 0.0 0.0 0.00 0.00 0.00 48 1010.0
20260504043530 97 0 0.0 0.0 0.00 0.00 0.00 48 1010.0
20260504042002 97 0 0.0 0.0 0.00 0.00 0.00 47 1010.0
20260504040435 96 0 0.0 0.0 0.00 0.00 0.00 49 1010.0
20260504034907 95 0 0.0 0.0 0.00 0.00 0.00 52 1010.0
20260504033338 95 0 0.0 0.0 0.00 0.00 0.00 53 1010.0